• In Uzbekistan
  • List of Countries
  • For 7 days
  • Water Temperature
  • Weather Map
  • Weather Widgets
  • user-avatar
    Login

    Hourly Weather Sydney

    Today, 18 January, Saturday

    Time Temperature Precipitation Wind Pressure Humidity
    00:00 +22°C° 0.5 mm 5 mps 756 mmHg 87%
    01:00 +21°C° 0.5 mm 5 mps 756 mmHg 88%
    02:00 +21°C° 1.3 mm 5 mps 755 mmHg 88%
    03:00 +21°C° 1.3 mm 5 mps 755 mmHg 88%
    04:00 +21°C° 0 mm 6 mps 755 mmHg 87%
    05:00 +21°C° 0.8 mm 6 mps 755 mmHg 86%
    06:00 +21°C° 0.8 mm 6 mps 755 mmHg 86%
    07:00 +22°C° 0.8 mm 6 mps 755 mmHg 85%
    08:00 +22°C° 0.9 mm 7 mps 756 mmHg 85%
    09:00 +22°C° 0.9 mm 7 mps 756 mmHg 84%
    10:00 +22°C° 0 mm 8 mps 756 mmHg 78%
    11:00 +21°C° 1.1 mm 7 mps 756 mmHg 80%
    12:00 +21°C° 1.1 mm 7 mps 756 mmHg 82%
    13:00 +21°C° 1.1 mm 6 mps 755 mmHg 85%
    14:00 +21°C° 0.5 mm 6 mps 755 mmHg 85%
    15:00 +21°C° 0.5 mm 6 mps 755 mmHg 86%
    16:00 +22°C° 0 mm 5 mps 755 mmHg 84%
    17:00 +21°C° 0.2 mm 4 mps 755 mmHg 85%
    18:00 +21°C° 0.2 mm 4 mps 755 mmHg 86%
    19:00 +21°C° 0.2 mm 4 mps 756 mmHg 87%
    20:00 +21°C° 0.3 mm 3 mps 756 mmHg 88%
    21:00 +20°C° 0.3 mm 3 mps 756 mmHg 89%
    22:00 +20°C° 0.3 mm 3 mps 756 mmHg 89%
    23:00 +20°C° 0.1 mm 3 mps 756 mmHg 90%

    Tomorrow, 19 January, Sunday

    Time Temperature Precipitation Wind Pressure Humidity
    00:00 +20°C° 0.1 mm 3 mps 755 mmHg 91%
    01:00 +20°C° 0.1 mm 2 mps 755 mmHg 91%
    02:00 +20°C° 0.1 mm 2 mps 755 mmHg 91%
    03:00 +20°C° 0.1 mm 3 mps 754 mmHg 91%
    04:00 +20°C° 0.1 mm 3 mps 754 mmHg 91%
    05:00 +20°C° 0.1 mm 3 mps 754 mmHg 91%
    06:00 +21°C° 0.1 mm 3 mps 755 mmHg 90%
    07:00 +21°C° 0.1 mm 3 mps 755 mmHg 90%
    08:00 +21°C° 0.1 mm 3 mps 755 mmHg 88%
    09:00 +22°C° 0.1 mm 3 mps 755 mmHg 86%
    10:00 +22°C° 0.1 mm 3 mps 754 mmHg 84%
    11:00 +24°C° 0.1 mm 3 mps 754 mmHg 82%
    12:00 +24°C° 0.1 mm 3 mps 753 mmHg 80%
    13:00 +24°C° 0.1 mm 3 mps 753 mmHg 78%
    14:00 +26°C° 0 mm 3 mps 752 mmHg 72%
    15:00 +27°C° 0 mm 3 mps 752 mmHg 66%
    16:00 +28°C° 0 mm 3 mps 751 mmHg 60%
    17:00 +27°C° 0 mm 3 mps 752 mmHg 65%
    18:00 +26°C° 0 mm 2 mps 752 mmHg 71%
    19:00 +25°C° 0 mm 2 mps 752 mmHg 76%
    20:00 +24°C° 0 mm 2 mps 752 mmHg 80%
    21:00 +23°C° 0 mm 2 mps 753 mmHg 84%
    22:00 +23°C° 0 mm 1 mps 753 mmHg 89%
    23:00 +23°C° 0.1 mm 1 mps 753 mmHg 89%

    Day after tomorrow, 20 January, Monday

    Time Temperature Precipitation Wind Pressure Humidity
    00:00 +22°C° 0.1 mm 1 mps 752 mmHg 90%
    01:00 +22°C° 0.1 mm 1 mps 752 mmHg 91%
    02:00 +22°C° 0.2 mm 1 mps 752 mmHg 91%
    03:00 +22°C° 0.2 mm 1 mps 751 mmHg 92%
    04:00 +22°C° 0.2 mm 1 mps 751 mmHg 92%
    05:00 +23°C° 0 mm 2 mps 751 mmHg 88%
    06:00 +24°C° 0 mm 2 mps 752 mmHg 84%
    07:00 +24°C° 0 mm 2 mps 752 mmHg 80%
    08:00 +27°C° 0 mm 2 mps 752 mmHg 71%
    09:00 +29°C° 0 mm 2 mps 752 mmHg 62%
    10:00 +31°C° 0 mm 2 mps 752 mmHg 53%
    11:00 +33°C° 0 mm 3 mps 751 mmHg 53%
    12:00 +33°C° 0 mm 4 mps 751 mmHg 52%
    13:00 +33°C° 0 mm 5 mps 750 mmHg 52%
    14:00 +30°C° 2.3 mm 5 mps 750 mmHg 61%
    15:00 +28°C° 2.3 mm 5 mps 750 mmHg 70%
    16:00 +26°C° 2.3 mm 5 mps 749 mmHg 78%
    17:00 +25°C° 1.6 mm 5 mps 750 mmHg 81%
    18:00 +23°C° 1.6 mm 5 mps 750 mmHg 84%
    19:00 +22°C° 1.6 mm 5 mps 750 mmHg 87%
    20:00 +22°C° 1.2 mm 4 mps 751 mmHg 87%
    21:00 +22°C° 1.2 mm 3 mps 751 mmHg 86%
    22:00 +23°C° 1.2 mm 2 mps 752 mmHg 86%
    23:00 +23°C° 0 mm 2 mps 752 mmHg 87%

    21 January, Tuesday

    Time Temperature Precipitation Wind Pressure Humidity
    00:00 +22°C° 0 mm 1 mps 751 mmHg 89%
    01:00 +22°C° 0 mm 1 mps 751 mmHg 90%
    02:00 +20°C° 0 mm 2 mps 751 mmHg 90%
    03:00 +20°C° 0 mm 3 mps 752 mmHg 90%
    04:00 +20°C° 0 mm 3 mps 752 mmHg 90%
    05:00 +20°C° 0 mm 3 mps 752 mmHg 83%
    06:00 +21°C° 0 mm 4 mps 753 mmHg 76%
    07:00 +21°C° 0 mm 4 mps 754 mmHg 69%
    08:00 +25°C° 0 mm 3 mps 754 mmHg 57%
    09:00 +28°C° 0 mm 3 mps 754 mmHg 45%
    10:00 +33°C° 0 mm 3 mps 754 mmHg 33%
    11:00 +34°C° 0 mm 3 mps 754 mmHg 29%
    12:00 +36°C° 0 mm 4 mps 753 mmHg 26%
    13:00 +37°C° 0 mm 4 mps 753 mmHg 22%
    14:00 +37°C° 0 mm 4 mps 753 mmHg 23%
    15:00 +36°C° 0 mm 4 mps 753 mmHg 24%
    16:00 +36°C° 0 mm 4 mps 753 mmHg 24%
    17:00 +34°C° 0 mm 5 mps 753 mmHg 34%
    18:00 +30°C° 0 mm 5 mps 754 mmHg 45%
    19:00 +28°C° 0 mm 6 mps 755 mmHg 55%
    20:00 +27°C° 0 mm 6 mps 755 mmHg 62%
    21:00 +25°C° 0 mm 5 mps 756 mmHg 70%
    22:00 +23°C° 0 mm 5 mps 756 mmHg 78%
    23:00 +23°C° 0 mm 5 mps 756 mmHg 80%

    22 January, Wednesday

    Time Temperature Precipitation Wind Pressure Humidity
    00:00 +22°C° 0 mm 4 mps 756 mmHg 83%
    01:00 +22°C° 0 mm 4 mps 756 mmHg 85%
    02:00 +21°C° 0 mm 3 mps 756 mmHg 86%
    03:00 +21°C° 0 mm 3 mps 756 mmHg 87%
    04:00 +20°C° 0 mm 2 mps 756 mmHg 87%
    05:00 +21°C° 0 mm 2 mps 757 mmHg 82%
    06:00 +23°C° 0 mm 2 mps 757 mmHg 76%
    07:00 +24°C° 0 mm 1 mps 758 mmHg 70%
    08:00 +27°C° 0 mm 1 mps 757 mmHg 61%
    09:00 +29°C° 0 mm 1 mps 757 mmHg 52%
    10:00 +32°C° 0 mm 1 mps 757 mmHg 43%
    11:00 +34°C° 0 mm 2 mps 757 mmHg 40%
    12:00 +35°C° 0 mm 4 mps 756 mmHg 37%
    13:00 +37°C° 0 mm 5 mps 755 mmHg 34%
    14:00 +36°C° 0 mm 5 mps 755 mmHg 37%
    15:00 +35°C° 0 mm 6 mps 754 mmHg 41%
    16:00 +34°C° 0 mm 6 mps 753 mmHg 45%
    17:00 +33°C° 0 mm 6 mps 754 mmHg 50%
    18:00 +32°C° 0 mm 6 mps 754 mmHg 55%
    19:00 +29°C° 0 mm 5 mps 754 mmHg 60%
    20:00 +28°C° 0 mm 5 mps 754 mmHg 59%
    21:00 +28°C° 0 mm 5 mps 755 mmHg 59%
    22:00 +27°C° 0 mm 5 mps 755 mmHg 59%
    23:00 +27°C° 0 mm 4 mps 755 mmHg 60%

    23 January, Thursday

    Time Temperature Precipitation Wind Pressure Humidity
    00:00 +26°C° 0 mm 4 mps 754 mmHg 61%
    01:00 +25°C° 0 mm 3 mps 754 mmHg 62%
    02:00 +25°C° 0 mm 3 mps 754 mmHg 61%
    03:00 +24°C° 0 mm 3 mps 753 mmHg 60%
    04:00 +24°C° 0 mm 3 mps 753 mmHg 58%
    05:00 +25°C° 0 mm 4 mps 753 mmHg 51%
    06:00 +27°C° 0 mm 4 mps 754 mmHg 43%
    07:00 +28°C° 0 mm 5 mps 754 mmHg 36%
    08:00 +33°C° 0 mm 6 mps 754 mmHg 30%
    09:00 +38°C° 0 mm 6 mps 754 mmHg 25%
    10:00 +43°C° 0 mm 7 mps 753 mmHg 19%
    11:00 +44°C° 0 mm 7 mps 753 mmHg 18%
    12:00 +45°C° 0 mm 7 mps 752 mmHg 16%
    13:00 +47°C° 0 mm 7 mps 752 mmHg 15%
    14:00 +46°C° 0 mm 7 mps 752 mmHg 16%
    15:00 +46°C° 0 mm 7 mps 751 mmHg 16%
    16:00 +45°C° 0 mm 7 mps 751 mmHg 17%
    17:00 +44°C° 0 mm 6 mps 752 mmHg 20%
    18:00 +41°C° 0 mm 6 mps 752 mmHg 22%
    19:00 +40°C° 0 mm 5 mps 753 mmHg 25%
    20:00 +39°C° 0 mm 5 mps 753 mmHg 31%
    21:00 +36°C° 0 mm 6 mps 754 mmHg 36%
    22:00 +35°C° 0 mm 6 mps 754 mmHg 42%
    23:00 +34°C° 0 mm 6 mps 754 mmHg 45%
    Show more